Lapse_Rate
6.2 6.2 6.2 6.8 7.0 7.1 7.1 7.5 7.9 8.6 8.2 7.9 7.7 7.1 7.1 7.5 7.6 6.6 6.7 5.9 6.5 7.0 6.8 6.0 4.2 5.1 6.3 6.0 6.5 5.3 5.8 5.7 6.2 6.5 6.5 6.5 6.5 6.5 6.5 6.5 6.5 6.5 6.5 6.5 6.5 6.5 6.5 5.4 6.2 6.5 5.8 4.7 3.2 3.3
6.7 6.6 6.7 6.8 7.1 7.4 7.7 8.2 8.2 8.0 7.9 7.6 7.5 7.4 7.5 6.7 7.3 6.4 6.8 6.6 6.4 6.6 6.6 5.7 4.3 3.7 4.5 6.0 4.8 2.9 5.3 5.5 4.5 6.5 6.5 6.5 6.5 6.5 6.5 6.5 6.5 6.5 6.5 6.5 6.5 6.5 5.9 5.5 5.5 3.3 1.7 2.4 3.2 3.0
8.2 8.2 8.2 8.2 8.1 8.0 7.9 7.8 7.8 8.0 7.8 7.5 7.4 7.1 7.1 7.6 7.6 7.0 6.6 6.1 6.6 6.8 6.2 4.8 3.8 4.2 4.2 3.2 3.8 4.0 3.9 3.4 3.6 1.7 6.0 6.5 6.5 6.5 6.5 6.5 6.5 6.5 6.0 6.5 6.5 6.5 6.4 5.0 2.2 1.3 2.1 1.4 1.1 1.4
7.9 7.8 7.9 7.7 7.5 7.4 7.5 7.6 7.6 7.7 7.6 7.5 7.1 7.0 7.3 7.5 7.7 7.4 6.6 6.7 7.3 6.4 6.5 6.2 5.7 5.7 5.0 4.0 3.7 4.2 2.9 1.0 0.6 1.4 5.7 6.5 6.5 6.2 6.5 6.5 6.5 6.2 6.2 6.5 6.5 6.5 6.1 5.0 2.3 0.4 0.1 0.0 -0.1 0.3
7.4 7.5 7.5 7.5 7.3 7.2 7.5 7.3 7.6 7.3 7.0 7.0 7.2 7.3 7.0 7.4 7.5 6.9 6.7 6.6 6.4 6.7 6.6 6.3 5.6 4.7 4.1 3.1 4.0 4.1 2.2 1.1 1.1 5.2 6.3 6.5 5.7 6.1 6.2 6.5 6.5 5.7 6.5 6.5 6.5 5.6 5.0 4.5 3.0 2.1 1.5 1.3 0.9 0.1
7.1 7.2 7.8 7.2 7.4 7.3 6.9 6.7 7.1 7.2 7.2 7.0 7.3 7.3 7.0 6.8 7.0 7.2 7.0 6.9 6.5 6.0 6.6 6.5 4.8 4.4 4.7 3.8 2.3 4.3 3.2 0.8 0.2 2.6 4.9 3.7 4.3 4.5 6.5 6.5 6.4 4.0 3.4 2.7 5.1 3.6 2.2 2.4 2.7 2.5 1.2 1.4 1.5 1.1
7.1 7.7 7.8 7.5 7.8 7.9 7.4 7.1 6.7 6.8 7.4 7.2 7.1 6.6 6.4 6.5 6.1 5.9 5.4 4.8 5.3 6.2 6.5 6.5 6.5 4.9 5.2 4.3 1.5 3.0 2.6 2.0 3.1 4.3 3.8 4.8 5.3 4.0 6.5 6.5 6.1 3.3 1.9 0.3 -0.4 1.2 4.6 3.9 3.2 2.6 1.6 2.2 2.5 2.2
6.9 6.9 7.0 7.1 6.8 6.5 6.5 6.8 7.2 7.1 7.2 7.3 7.3 7.1 6.6 6.4 5.9 6.4 4.5 3.7 4.5 6.7 6.5 6.5 6.5 5.8 5.6 3.4 5.4 3.6 2.9 3.6 4.8 5.2 3.2 6.3 5.2 4.4 6.5 6.4 5.2 4.6 3.4 3.6 2.3 1.5 1.1 2.4 3.0 3.1 3.0 3.1 2.8 3.1
6.6 6.6 6.4 6.2 6.1 6.0 5.9 6.1 6.0 6.5 6.4 6.2 6.4 6.2 6.6 6.9 6.9 6.2 4.2 5.6 4.8 6.2 6.3 6.1 6.5 6.5 5.0 4.6 3.6 3.3 3.5 6.5 5.5 6.5 6.5 5.9 6.5 6.5 6.5 6.1 5.8 5.5 4.2 4.3 3.1 1.8 3.1 2.6 4.0 4.2 3.6 3.5 2.7 3.4
6.5 6.3 6.4 5.9 5.5 5.8 5.9 6.0 6.2 6.2 6.2 6.2 6.7 7.0 6.7 6.3 5.0 5.2 6.6 7.0 5.9 5.6 4.2 6.5 5.5 6.5 6.1 4.8 6.1 6.1 4.5 6.5 6.5 6.4 5.4 6.5 6.5 6.1 5.0 4.7 3.8 3.6 3.2 3.7 4.4 6.0 5.2 5.2 4.5 4.6 4.2 4.1 3.5 2.9
6.9 6.5 6.0 5.9 5.6 5.8 5.7 5.8 5.9 6.2 6.4 6.8 6.4 5.3 5.5 4.8 4.7 4.4 5.5 6.0 5.8 6.5 5.3 5.4 4.9 6.5 5.6 6.5 6.5 4.8 6.5 6.5 6.5 6.5 6.5 6.5 6.5 6.4 4.8 3.4 3.3 3.3 3.7 3.5 2.6 3.3 3.8 2.9 3.4 3.4 3.4 2.9 2.6 2.6
7.1 6.5 5.9 5.8 5.5 5.0 5.3 5.8 5.7 6.3 6.5 6.6 5.8 5.9 5.6 5.2 6.1 6.5 6.5 6.3 6.5 6.5 5.6 6.5 5.5 5.6 4.1 4.6 6.3 5.5 6.5 6.5 6.5 6.2 6.5 6.5 6.5 5.7 4.8 4.6 4.5 4.0 3.7 3.4 3.0 3.1 3.4 3.8 4.0 3.1 2.7 2.5 2.3 2.2
6.1 6.5 5.6 5.1 5.7 5.7 5.6 6.0 6.1 6.4 5.1 4.5 3.8 4.8 6.4 6.0 6.5 6.5 6.5 6.5 6.5 6.4 5.6 4.8 6.3 4.2 4.1 3.9 6.4 6.5 6.5 6.5 5.2 6.5 6.5 6.5 6.5 6.3 5.7 4.8 4.8 4.8 4.2 3.7 4.0 3.5 2.9 2.6 2.6 2.1 2.1 2.0 1.8 2.1
5.1 5.3 5.4 5.5 5.8 5.6 5.6 5.7 6.0 4.5 4.5 4.8 5.8 6.5 6.5 6.5 6.5 6.5 6.5 6.5 5.9 5.2 4.5 4.3 5.7 6.4 4.4 6.5 6.5 6.5 6.5 6.5 6.5 6.5 6.5 6.5 6.4 5.8 5.3 4.3 3.6 3.6 2.6 2.8 2.9 2.6 2.5 2.3 1.9 2.3 1.5 1.5 1.3 1.5
3.8 4.3 4.9 5.0 5.2 4.9 5.2 4.4 3.6 3.7 4.4 5.7 6.2 6.5 6.5 6.3 6.2 6.0 5.5 5.6 4.9 4.0 3.7 5.1 5.6 5.9 6.5 6.5 6.5 6.5 6.5 6.5 6.5 6.5 6.5 6.1 6.1 5.4 4.8 3.9 2.7 2.6 2.7 2.8 3.2 3.0 3.1 3.6 2.2 1.9 1.8 1.6 1.1 0.3
3.1 3.1 2.7 3.1 3.5 4.0 4.1 3.8 3.7 3.8 3.6 5.1 6.2 6.4 6.2 6.4 6.5 6.4 6.1 6.1 5.1 3.8 3.7 4.9 6.5 6.5 6.5 6.5 6.5 6.5 6.5 6.5 6.5 6.5 6.1 5.5 4.9 4.6 4.3 3.9 3.5 3.5 3.1 3.1 3.3 4.2 4.3 3.4 3.5 3.0 1.9 1.9 1.3 1.0
2.2 4.0 4.4 4.2 4.1 3.8 3.6 3.4 3.5 4.6 5.2 5.6 6.4 6.4 6.4 6.5 6.6 6.6 6.2 5.6 4.1 4.8 6.5 6.5 6.5 6.5 6.5 6.5 6.5 6.5 6.5 6.5 6.5 6.0 5.0 4.6 4.4 4.4 4.1 3.8 3.5 3.4 3.7 4.8 4.3 3.7 3.9 3.2 2.7 3.1 3.3 3.7 3.5 2.5
0.9 1.4 3.6 3.8 2.8 1.5 2.6 4.3 3.3 4.6 6.4 6.4 6.0 6.5 6.6 6.5 6.2 6.5 5.9 5.2 4.9 5.5 6.3 6.5 6.3 6.5 6.5 6.5 6.5 6.5 6.7 6.4 5.7 5.3 4.9 4.6 4.2 3.9 4.2 4.2 4.7 5.4 5.3 4.3 4.1 4.3 3.6 3.9 4.6 4.5 4.5 4.5 4.1 4.3
1.2 1.3 1.3 0.9 0.9 1.1 4.8 5.2 5.4 6.4 6.3 6.2 6.3 6.0 6.7 6.7 6.1 5.5 5.3 5.4 6.2 6.0 6.4 6.7 6.5 6.5 6.5 6.7 6.6 6.6 6.2 5.4 6.3 5.8 5.2 4.7 4.4 4.5 4.5 4.5 4.6 4.6 4.5 4.8 5.2 4.9 4.4 4.3 4.2 4.5 4.2 4.7 4.4 4.2
1.3 0.9 0.8 0.9 0.8 2.4 5.0 5.1 5.1 6.1 6.5 6.1 6.6 6.8 7.0 7.0 6.6 6.4 5.8 6.3 6.4 6.9 6.7 6.5 6.5 6.8 6.9 6.8 6.6 6.7 5.1 3.5 5.3 4.9 4.0 2.9 3.2 3.3 3.5 3.9 3.4 3.1 3.0 3.1 3.2 3.5 4.1 4.2 4.2 3.8 3.6 3.8 4.2 4.3
-0.1 0.2 0.8 -1.2 1.6 3.3 4.2 5.0 5.7 5.9 5.6 5.9 4.2 4.6 5.3 6.2 6.7 6.6 6.4 6.3 6.7 6.9 6.7 7.1 6.9 6.8 6.4 5.8 5.3 5.2 4.1 2.9 2.6 4.0 5.5 4.4 3.4 2.9 3.0 3.1 3.0 2.9 3.0 3.4 3.1 3.4 3.3 3.4 3.9 3.8 3.3 3.0 3.1 3.8
-1.5 -0.5 -3.7 -0.4 2.0 2.9 3.0 2.9 3.9 3.3 4.6 4.3 4.1 4.2 4.7 5.2 4.5 5.3 6.3 6.7 6.9 7.0 7.0 7.1 7.0 6.7 6.3 5.8 5.1 4.7 4.8 3.9 3.5 3.2 2.9 2.8 2.7 2.9 3.0 3.5 3.1 3.2 3.4 3.6 3.4 3.1 3.4 3.8 3.7 3.3 2.7 2.6 3.8 3.7
-1.3 -0.8 -0.1 0.9 1.3 1.7 2.9 1.7 3.3 4.3 6.5 4.3 3.3 5.7 5.5 3.6 4.5 4.9 5.5 7.1 7.1 7.0 6.9 6.6 6.2 5.9 5.6 5.2 4.8 4.4 4.2 3.9 3.4 3.4 3.0 2.8 2.9 2.7 2.2 2.2 2.9 3.2 3.3 4.1 4.2 3.6 3.1 3.1 2.6 1.5 1.3 1.4 1.0 1.1
-0.9 0.4 0.5 0.5 1.9 3.6 -0.4 1.8 2.9 3.5 2.4 6.1 6.5 6.5 6.3 4.9 3.5 4.7 6.5 6.9 7.1 6.0 5.9 6.1 6.0 5.6 5.2 4.4 4.5 4.9 4.9 4.4 3.5 3.5 4.1 3.4 2.5 2.6 2.2 2.1 1.9 1.9 2.1 2.6 1.9 0.8 0.5 -0.1 0.2 0.1 -1.4 -2.7 -2.4 -2.5
2.5 4.3 1.8 6.6 0.7 3.7 6.5 6.5 6.1 6.3 6.5 6.5 6.5 6.5 6.6 1.7 6.5 6.5 6.5 6.2 5.7 4.8 4.7 4.8 4.9 4.8 4.3 4.8 4.8 4.8 4.6 4.1 3.1 2.6 3.4 4.6 3.4 3.3 2.6 1.8 1.3 1.2 1.4 0.2 -2.1 -2.8 -3.0 -3.7 -4.5 -4.9 -4.2 -5.6 -1.0 -1.0
6.5 4.8 6.1 5.6 4.4 5.7 6.2 6.5 6.5 6.5 6.5 6.5 6.4 5.3 1.2 6.1 6.5 6.5 6.6 4.2 5.0 3.8 3.6 3.7 2.4 4.1 4.9 5.0 4.1 3.6 3.7 4.3 3.4 1.4 2.9 3.1 2.4 0.3 0.0 0.1 0.2 0.4 -2.1 -6.0 -5.6 -5.1 -4.0 -4.8 -5.1 -3.5 -4.0 -1.7 -0.0 -0.8
6.5 6.1 4.7 3.9 2.6 2.3 4.0 1.1 2.4 5.4 6.5 6.5 6.5 6.3 6.5 6.5 6.5 6.4 6.5 5.8 5.5 4.6 5.5 5.0 4.9 4.3 4.3 4.4 4.1 3.4 3.0 3.0 2.7 2.8 2.8 2.0 1.2 0.7 -1.3 -2.1 -0.8 1.1 -2.1 -3.6 -4.1 -2.8 -1.1 -1.6 -2.6 -1.3 -1.6 -4.5 -3.5 -2.6
5.6 2.8 6.4 1.8 2.3 1.8 5.9 5.4 6.5 6.5 6.5 6.0 4.7 6.5 6.5 6.5 6.5 6.8 6.0 6.4 5.2 4.9 4.2 3.5 3.2 2.4 1.4 1.2 0.3 1.2 2.5 2.1 1.9 1.5 0.5 0.6 0.0 0.3 -0.3 0.7 0.9 2.3 0.3 -0.2 -1.9 -3.9 -3.3 0.3 0.6 1.2 0.4 1.1 1.4 -1.7
3.9 1.1 1.6 3.6 1.8 3.1 5.5 4.9 4.3 5.7 5.8 5.4 5.5 6.5 5.5 6.5 4.7 4.2 5.2 5.3 4.7 4.0 2.9 2.0 2.3 1.5 1.3 1.0 -0.2 -1.2 -0.6 -2.1 -1.5 -2.1 -3.8 -4.6 -4.1 -2.0 -3.0 -4.4 -3.7 -3.0 -2.3 -3.3 1.3 4.0 5.5 4.2 2.4 0.8 2.1 1.1 2.9 0.9
3.5 -0.9 1.0 -0.3 5.5 6.5 3.7 2.2 3.8 2.6 2.5 1.9 5.9 7.4 6.4 5.5 5.2 4.7 4.3 3.5 3.0 2.2 0.8 0.1 -0.3 0.3 -2.6 -2.3 -2.4 -0.6 -2.2 -4.2 -3.1 -2.6 -3.4 -2.2 -0.6 -0.9 -4.6 -5.3 -4.1 -4.7 -3.7 -4.2 -3.0 -1.3 1.2 -1.3 -0.4 -0.9 -0.9 0.2 0.0 -1.3
-0.9 -1.6 0.9 1.7 4.3 5.3 4.0 2.5 1.8 -0.2 -2.0 -0.4 -0.3 2.2 3.1 4.6 3.5 4.6 4.5 3.3 2.9 1.8 2.0 0.9 -1.2 -5.2 -3.5 -3.7 -4.6 -4.0 -2.6 -2.3 -2.4 -1.2 -1.5 -2.6 -3.0 -3.6 -2.0 -1.3 -0.8 -2.3 -4.3 -5.3 -5.5 -4.9 -3.2 -2.5 -2.9 -1.9 -0.1 1.5 2.4 2.0
-1.6 -2.9 0.5 6.2 3.8 4.3 4.6 3.2 2.7 1.0 0.1 0.2 2.0 -0.6 0.9 0.2 1.9 3.2 3.8 1.7 1.3 -0.9 -1.7 -3.1 -2.1 -0.6 -3.0 -4.7 -5.4 -4.6 -1.5 -3.0 -3.4 -4.1 -3.6 -4.3 -3.6 -1.2 0.4 1.0 0.5 -1.3 -4.6 -4.2 -4.8 -4.5 -3.1 -1.2 -1.3 -0.9 -1.7 -0.8 0.8 2.0
-2.9 -3.5 -3.9 -1.2 1.9 1.7 -0.4 2.1 4.1 3.1 1.9 2.2 1.9 1.4 1.1 1.2 2.9 2.8 2.1 0.5 -1.5 -2.8 -3.0 -4.4 -5.0 -3.4 -0.2 -0.7 -1.3 -2.7 0.5 0.0 -0.1 0.5 2.1 3.0 3.1 3.4 2.9 2.5 0.9 -2.1 -4.0 -4.4 -4.7 -4.3 -2.6 -1.0 -1.3 -2.8 -2.2 0.2 1.3 1.6
Wind_Speed
32 31 33 34 34 33 32 31 32 31 29 29 29 28 30 27 28 14 7 5 4 2 6 4 4 5 14 13 13 6 4 1 3 5 4 4 3 6 4 5 7 7 7 4 3 3 7 6 5 8 6 2 7 5
29 30 29 29 28 29 29 29 28 28 26 27 28 27 25 24 27 25 5 5 4 1 4 3 13 15 10 10 9 5 6 6 5 4 0 3 3 2 5 3 2 2 7 6 8 6 4 3 4 3 5 8 6 7
23 24 25 25 24 24 24 24 24 25 26 24 23 22 24 24 24 22 3 3 3 2 6 3 6 7 9 13 6 5 3 3 3 3 4 2 4 4 4 5 4 3 4 4 4 2 4 2 3 4 3 5 5 4
22 24 23 23 22 22 22 22 23 23 22 22 21 21 21 22 26 14 2 4 3 1 3 4 5 8 5 7 8 5 6 5 5 3 3 3 3 3 4 4 5 5 8 7 1 1 3 4 3 6 10 10 12 10
18 19 20 19 19 19 20 19 20 22 22 22 20 20 21 23 28 6 3 2 1 3 2 5 11 6 7 5 12 5 8 6 3 3 2 2 3 4 1 2 1 5 7 6 6 11 5 5 7 8 10 9 9 14
16 16 17 15 16 16 15 17 18 18 23 22 22 20 24 23 18 5 3 3 3 2 2 3 4 5 4 3 8 9 5 3 3 4 3 1 1 3 4 3 3 3 2 4 5 9 5 12 8 5 11 9 10 12
15 16 18 16 16 17 19 15 18 18 23 24 24 23 23 22 6 3 4 3 14 5 2 3 4 4 2 2 3 3 3 3 1 3 2 2 2 3 3 4 4 5 6 11 16 16 8 3 6 10 13 13 14 12
14 15 16 16 15 14 13 15 20 22 23 23 26 26 24 21 4 3 0 15 13 3 2 3 4 4 2 1 3 1 2 3 3 2 2 2 1 2 1 1 6 9 12 10 5 6 12 16 15 13 13 14 15 12
16 17 17 16 16 17 17 17 19 21 21 20 19 19 7 2 4 2 12 12 2 3 3 3 3 3 4 2 2 3 1 2 2 2 2 2 1 3 1 5 9 12 5 13 13 16 17 17 15 14 14 12 15 10
20 19 18 16 15 15 16 16 17 16 17 20 8 3 3 4 21 11 3 1 3 3 2 1 1 1 3 0 2 3 2 2 1 1 2 3 2 3 3 2 7 11 16 17 18 10 14 14 13 12 12 10 11 10
17 18 17 14 14 14 14 14 18 22 18 2 3 2 4 7 3 3 2 2 2 2 1 2 3 2 3 3 3 3 4 3 3 2 5 3 2 2 3 6 8 9 10 5 10 11 9 16 15 14 12 11 11 10
20 18 17 15 13 15 15 15 21 9 5 5 6 5 3 3 4 1 4 2 3 4 1 1 1 1 2 2 3 3 3 2 2 2 3 3 0 4 5 8 8 9 11 12 14 17 14 14 13 13 12 11 10 10
20 18 17 17 14 11 15 14 18 3 4 0 4 4 3 1 3 1 1 1 2 2 2 2 3 1 3 4 4 3 4 0 1 3 1 1 3 6 8 10 11 11 13 14 15 15 16 15 12 14 12 10 10 9
19 19 18 16 17 17 18 19 13 0 3 4 5 5 3 3 3 2 2 1 1 2 2 2 3 3 2 4 2 5 1 1 2 2 2 0 5 7 6 7 12 11 12 13 13 14 14 14 11 10 10 9 10 9
24 22 20 18 19 18 18 16 4 5 3 4 3 4 4 1 1 2 2 1 3 2 2 2 3 3 3 4 3 3 3 3 2 0 2 2 7 7 8 9 11 11 10 11 11 12 12 11 11 11 8 9 9 8
17 15 8 9 14 16 18 12 4 2 3 4 6 3 3 2 4 3 3 2 5 3 2 2 3 3 4 2 3 4 2 3 2 2 2 4 7 7 8 9 9 9 10 10 10 10 9 9 10 10 9 8 7 8
11 4 5 4 12 10 12 3 2 5 4 5 3 3 2 1 3 3 4 3 4 2 3 3 5 5 3 3 4 4 3 4 4 2 3 5 6 8 8 9 9 10 10 9 9 8 9 9 10 9 10 7 8 6
4 4 5 7 8 6 3 5 4 5 7 4 3 5 5 5 3 4 5 7 3 2 2 4 3 6 5 4 3 4 4 4 3 4 4 5 7 7 7 10 8 8 9 9 9 9 9 9 8 6 8 8 8 7
8 9 17 14 8 5 4 5 4 5 5 1 3 2 4 4 8 8 8 7 6 5 4 3 6 4 3 3 3 6 6 4 3 5 7 9 7 7 7 7 8 8 9 9 9 7 7 9 7 6 5 5 4 4
10 21 18 17 7 4 5 3 3 4 3 2 3 9 5 5 5 7 11 9 8 4 7 5 4 3 3 4 5 5 6 6 3 6 7 8 8 11 10 7 7 10 10 11 10 10 8 8 6 6 5 4 3 3
9 8 14 8 4 6 4 2 4 3 3 3 0 2 3 5 11 9 8 7 9 4 4 4 4 5 6 7 7 6 8 9 8 6 5 6 8 9 9 8 10 9 8 7 7 8 9 6 5 4 4 3 2 2
3 9 3 8 5 5 5 5 3 1 3 2 3 3 3 3 3 4 4 8 5 5 4 3 6 6 8 12 10 11 10 12 12 9 12 9 8 8 8 7 9 9 8 7 7 6 5 4 4 4 4 3 3 2
4 6 4 7 7 6 2 2 5 4 4 2 3 4 3 3 2 2 4 4 4 4 4 6 9 11 10 11 11 13 13 12 9 8 8 8 8 8 8 9 8 7 7 7 6 5 5 6 5 4 3 3 3 2
9 5 6 5 6 2 3 5 3 3 4 3 3 3 3 2 2 4 4 3 3 5 7 9 5 4 6 9 8 8 8 6 7 8 7 7 7 8 7 7 7 7 6 5 5 4 5 4 5 4 4 3 3 2
7 9 6 7 4 6 6 5 6 5 3 3 4 3 2 3 3 3 3 2 4 4 5 5 6 6 5 5 5 6 9 6 6 7 7 5 4 4 6 6 6 6 4 5 4 4 3 3 3 4 3 3 4 4
8 6 5 4 3 4 2 3 4 4 3 4 3 2 3 4 5 3 2 0 2 2 2 2 2 3 6 6 5 5 5 4 6 8 7 7 6 4 4 4 3 3 3 2 3 3 3 3 3 5 4 5 5 3
6 5 3 2 2 3 4 3 2 5 5 4 3 4 3 5 3 2 2 2 2 2 4 5 5 5 5 4 4 4 4 6 7 6 5 6 6 4 3 3 3 2 2 2 2 1 1 3 3 3 4 3 4 3
3 4 4 5 4 3 4 4 4 4 3 3 3 6 3 3 2 2 2 2 4 6 6 6 6 6 5 5 3 3 4 4 6 4 3 4 5 5 5 4 6 10 6 4 2 2 2 3 3 3 3 4 5 3
4 3 4 7 5 5 5 3 2 2 5 2 3 2 2 3 3 3 4 4 5 5 5 4 4 3 3 4 5 5 5 4 4 6 5 3 4 3 3 3 3 4 6 3 9 7 7 2 2 3 4 4 4 3
3 2 4 4 4 4 3 2 2 2 4 3 4 4 3 3 4 4 5 5 5 5 2 2 2 3 2 3 2 5 4 3 3 3 2 2 3 3 3 3 3 3 4 3 3 4 7 4 5 4 4 4 3 3
1 3 4 4 3 2 4 4 4 4 3 4 3 4 3 3 2 4 5 3 3 3 3 3 3 2 4 3 2 2 3 3 2 2 1 2 3 3 3 3 5 5 3 3 3 3 3 3 3 3 5 6 7 4
4 3 4 3 1 2 1 1 2 3 2 3 1 2 3 3 2 2 2 2 3 4 2 1 2 2 1 2 2 1 3 2 3 2 4 2 2 5 6 7 6 4 2 3 2 2 2 2 2 4 4 6 7 6
3 3 4 3 3 3 3 3 3 3 3 2 1 2 2 3 3 3 1 3 3 2 1 2 2 1 4 4 2 1 3 5 7 7 7 5 4 6 7 7 6 5 3 3 3 2 3 2 2 3 4 5 6 5
Wind_Direction
86 105 115 124 129 137 146 153 162 166 169 174 178 183 181 171 177 177 218 182 153 215 299 331 350 170 195 205 194 173 114 233 61 163 148 195 136 208 106 163 173 162 143 179 92 74 278 190 121 166 206 69 140 159
98 104 110 119 130 140 149 158 161 165 170 174 176 175 173 169 178 178 223 143 112 174 267 315 261 260 244 236 176 200 191 154 175 118 79 108 100 79 143 202 147 201 178 177 176 207 229 238 208 175 161 147 167 145
100 109 118 127 135 141 148 154 160 166 168 166 170 168 170 179 182 187 125 102 88 358 288 241 248 268 212 226 202 143 293 133 139 138 165 153 137 136 153 234 112 245 166 135 104 217 226 171 65 72 89 112 104 94
108 113 113 117 126 137 147 152 159 162 163 167 166 169 171 184 180 171 154 133 142 107 301 302 8 282 259 206 200 170 153 88 108 106 144 142 144 197 199 163 155 196 140 140 79 63 81 11 68 113 93 91 89 71
111 115 115 113 119 129 139 153 162 163 163 166 164 168 181 180 158 130 99 171 306 166 353 301 274 227 272 227 196 169 127 124 135 115 126 173 159 125 332 80 239 193 166 158 213 186 159 164 141 130 116 113 112 115
112 116 117 112 116 117 127 143 150 167 171 170 169 171 157 136 127 138 159 210 157 73 283 295 298 300 291 223 141 200 157 99 109 143 191 191 151 125 133 186 248 183 160 162 168 122 86 112 98 88 116 116 107 108
118 118 126 142 131 127 134 142 127 137 142 142 148 134 133 142 145 194 186 182 138 107 261 301 292 285 314 277 76 87 66 83 144 119 78 160 121 94 107 175 189 123 113 111 118 109 74 149 147 117 114 112 106 99
127 125 124 124 125 127 125 120 126 126 131 141 143 142 151 167 35 303 189 135 123 147 249 274 273 344 321 185 109 339 87 61 7 135 83 102 54 60 182 283 101 108 108 104 36 74 118 118 115 115 118 119 109 107
140 134 126 123 122 123 123 124 122 125 131 130 132 129 127 178 208 141 124 128 70 212 216 194 169 229 354 69 95 49 55 78 259 156 116 76 311 191 136 165 151 153 153 127 101 105 116 119 124 125 123 121 117 116
138 136 134 132 129 121 119 122 124 123 126 130 129 147 173 197 127 131 68 317 187 205 339 243 23 230 302 190 33 115 75 81 236 244 127 62 321 338 325 133 114 118 122 122 109 110 118 121 133 133 129 125 122 121
141 140 141 141 135 131 146 133 129 137 142 110 181 175 96 139 78 48 257 183 256 18 265 230 196 101 299 103 145 177 156 180 144 197 127 171 247 216 12 99 118 131 132 95 102 118 127 136 136 128 119 116 117 120
160 161 163 165 166 173 162 155 158 155 166 197 127 98 60 48 60 124 210 223 108 198 239 199 32 84 1 16 73 5 85 42 138 156 90 170 358 118 99 103 97 104 113 116 126 127 126 127 128 122 122 119 116 118
181 179 184 189 176 165 171 171 182 322 183 349 69 86 55 49 187 237 97 99 171 317 343 16 46 47 9 28 62 80 76 180 351 60 142 85 115 112 112 104 87 89 99 102 104 105 108 108 111 120 116 116 120 119
117 132 149 155 151 156 161 171 180 116 52 40 40 64 54 34 35 4 313 347 334 291 359 46 58 56 343 49 5 82 21 98 80 148 228 39 127 119 104 105 110 104 103 107 109 110 110 111 108 111 120 127 124 121
88 87 88 102 119 140 164 185 93 42 60 74 69 60 44 358 250 262 269 32 337 282 33 38 55 61 13 83 38 93 45 58 67 196 13 76 108 112 106 105 106 107 110 108 109 105 108 117 120 110 106 109 109 109
89 63 31 68 118 128 117 98 57 60 64 74 45 34 359 7 12 4 351 13 1 349 11 49 82 72 49 63 55 20 66 43 16 341 328 98 97 95 101 99 97 101 105 105 106 115 122 123 121 118 106 105 104 114
92 79 335 90 127 134 153 103 119 56 59 41 30 9 343 61 32 11 342 339 313 38 41 44 50 22 29 46 43 18 27 330 322 340 27 64 103 109 106 103 103 104 105 107 111 110 104 102 107 111 120 126 121 110
58 309 11 180 185 94 62 37 71 64 50 30 48 33 51 33 339 15 357 5 10 71 42 51 43 41 34 37 29 350 319 325 17 36 60 74 89 100 109 117 115 115 113 113 109 106 110 115 115 110 111 117 113 115
48 40 30 31 79 95 68 29 45 83 49 21 5 14 53 51 29 21 20 20 42 47 81 56 50 38 40 10 321 340 336 342 12 46 49 45 48 75 91 97 102 103 103 103 104 96 83 78 79 83 80 86 97 93
36 33 20 23 51 75 73 34 46 69 44 81 78 50 44 28 0 19 27 22 32 49 44 47 35 15 14 354 349 359 350 342 9 60 45 33 31 56 53 67 82 87 84 84 82 84 87 77 68 73 72 79 96 107
31 350 12 30 51 63 83 64 67 104 129 92 230 76 92 52 44 35 34 10 46 37 61 50 50 42 29 26 20 22 29 33 41 44 51 57 41 53 56 57 65 66 70 68 74 65 63 64 62 67 69 53 73 110
348 22 49 24 67 56 68 19 97 116 70 100 44 46 49 51 33 26 39 37 53 31 30 39 39 33 38 36 32 30 40 51 53 56 53 52 50 49 47 48 64 67 62 61 67 70 65 58 59 56 54 34 60 56
17 38 44 31 65 51 317 22 63 22 72 11 27 43 29 46 44 33 67 36 44 3 44 56 54 51 50 37 39 40 37 50 54 52 54 59 58 54 55 48 47 60 63 49 52 59 54 49 46 38 24 34 25 28
31 49 48 47 47 59 12 21 29 47 45 34 60 48 36 70 69 63 69 51 1 1 30 32 34 55 47 43 41 32 26 44 61 52 45 63 67 56 55 57 51 47 43 48 48 47 41 33 26 33 21 28 14 4
63 359 62 12 358 53 43 18 5 46 52 21 67 24 24 48 67 67 73 49 2 7 13 26 47 48 58 52 38 37 30 41 57 63 26 51 80 83 72 66 56 48 31 50 35 38 20 18 26 28 21 43 32 14
70 0 54 33 348 74 56 47 38 43 57 42 37 16 48 70 63 58 69 187 2 337 339 18 52 61 57 45 43 27 7 23 73 72 45 42 48 69 64 60 36 22 26 89 95 44 3 356 358 0 348 336 337 350
58 17 351 34 96 81 51 50 59 65 49 36 355 28 56 64 66 80 91 29 73 10 41 42 50 54 49 37 36 22 29 53 71 86 81 61 51 47 81 86 37 299 341 53 72 150 273 298 298 300 289 291 267 251
74 64 66 312 50 27 87 51 48 41 358 344 65 37 89 107 71 27 10 89 84 80 73 64 61 63 60 43 24 31 51 73 85 80 70 68 49 43 30 31 25 27 15 1 316 290 245 262 271 272 266 280 287 274
38 337 70 22 39 39 40 70 59 33 353 37 92 76 79 58 348 345 4 48 62 70 69 64 44 32 49 47 45 35 32 47 76 57 43 350 351 326 354 346 346 351 1 352 343 341 318 301 290 261 276 264 283 298
353 32 87 53 62 56 355 70 63 13 33 86 96 96 66 42 10 20 51 55 67 73 51 59 27 60 60 68 32 33 27 33 75 113 129 288 263 287 316 316 325 323 337 357 332 323 347 10 350 355 356 337 329 318
13 58 70 61 82 80 113 107 88 69 55 45 36 87 126 141 25 26 43 29 64 50 54 38 25 23 73 48 84 72 1 337 13 5 217 259 277 288 293 282 303 319 332 350 352 353 350 348 339 339 342 346 339 345
29 58 112 95 52 44 332 55 86 87 72 72 43 69 46 55 51 334 345 53 50 42 353 64 62 326 120 156 185 195 180 269 302 300 305 300 303 318 324 331 332 326 332 328 339 341 334 308 313 326 322 326 329 329
45 44 53 70 36 13 336 69 65 72 46 70 78 125 116 133 163 213 333 52 135 168 251 255 258 198 150 138 123 322 351 330 331 344 4 5 330 344 349 340 346 349 344 335 338 340 343 343 315 318 323 328 325 327